Temperature
10 10 10 10 9 9 9 9 9 9 9 9 9 9 9 9 9 9 9 9 9 10 9 10 10 10 10 10 10 10 10 10 10 10 10 10 10 10 10 10 11 11 11
9 9 9 9 9 9 9 9 9 9 9 9 9 9 9 9 9 9 9 9 9 9 9 9 9 9 9 9 9 9 9 9 9 10 10 10 10 10 10 10 10 10 10
8 8 8 8 8 8 8 8 8 8 8 8 8 8 8 8 8 8 8 8 8 9 9 9 9 9 9 9 9 9 9 9 9 9 9 9 9 9 9 10 10 10 10
8 8 8 8 8 8 7 7 7 7 7 8 8 8 8 8 8 8 8 8 8 8 8 8 8 8 8 8 8 8 8 8 9 9 9 9 9 9 9 9 9 9 9
7 7 7 7 7 7 7 7 7 7 7 7 7 7 7 7 7 7 7 7 7 7 7 8 8 8 8 8 8 8 8 8 8 8 8 8 8 8 8 8 9 9 9
6 6 6 6 6 6 6 6 6 6 6 6 6 6 6 6 6 6 6 6 7 7 7 7 7 7 7 7 7 7 7 7 7 7 7 8 8 8 8 8 8 8 8
6 6 6 6 6 6 6 6 5 5 5 5 5 5 5 5 6 6 6 6 6 6 6 6 6 6 6 7 7 7 7 7 6 6 7 7 7 7 7 7 7 7 7
5 5 5 5 5 5 5 5 5 5 5 5 4 4 4 4 4 5 5 5 5 5 5 5 5 6 6 6 6 6 6 6 6 6 6 6 6 6 6 7 7 7 7
4 4 4 4 4 4 4 4 4 4 4 4 4 4 4 4 3 4 4 4 5 5 5 5 5 5 5 5 5 5 6 6 6 6 6 6 6 6 6 6 6 6 6
4 4 4 4 3 3 4 4 3 4 3 3 3 3 3 3 3 3 3 4 4 4 4 4 4 5 5 5 5 5 5 5 5 5 5 5 5 5 5 5 5 5 6
3 3 3 3 3 3 3 3 3 3 3 3 3 3 3 3 3 2 2 3 3 3 3 4 4 4 4 4 4 4 4 4 4 4 4 4 4 4 5 5 5 5 5
2 2 2 2 2 2 2 2 2 2 2 2 2 2 2 2 2 2 2 2 2 3 3 3 3 3 3 3 3 3 3 3 4 4 4 4 4 4 4 4 4 4 4
2 2 2 2 2 2 2 2 2 2 2 1 1 1 1 2 2 2 2 1 1 2 2 2 2 3 3 3 3 3 3 3 3 3 3 3 3 4 4 4 4 4 4
2 1 1 1 1 1 1 1 1 1 1 1 1 1 1 1 1 1 1 1 1 0 1 1 2 2 2 2 2 2 2 2 2 2 3 3 3 3 3 3 3 3 3
1 1 1 1 1 1 1 0 1 1 1 1 0 0 -0 -0 0 0 1 0 0 -0 0 0 1 1 1 1 1 1 1 2 2 2 2 2 2 2 2 2 2 3 3
0 0 0 0 0 0 0 0 -0 -0 -0 -0 -0 -0 -1 -1 -1 -0 -0 -0 -0 -1 -1 -0 0 0 0 0 0 0 1 1 1 1 1 1 1 2 2 2 2 2 2
-0 -0 -0 -0 -0 -0 -0 -0 -1 -1 -1 -1 -1 -1 -1 -1 -1 -1 -1 -1 -1 -1 -1 -1 -1 -0 -0 -0 -0 -0 -0 -0 0 0 1 1 1 1 1 1 1 1 2
-1 -1 -1 -1 -1 -1 -1 -1 -1 -1 -1 -1 -1 -1 -1 -1 -2 -2 -2 -2 -2 -1 -2 -2 -1 -1 -1 -1 -1 -1 -1 -1 -1 -0 -0 -0 0 0 0 1 1 1 1
-1 -1 -1 -1 -1 -1 -1 -1 -2 -2 -2 -2 -2 -2 -2 -2 -2 -2 -2 -2 -2 -2 -2 -2 -2 -2 -2 -1 -2 -2 -2 -2 -2 -1 -1 -1 -1 -0 -0 -0 0 0 0
-2 -2 -2 -2 -2 -2 -2 -2 -2 -2 -2 -2 -2 -2 -2 -3 -3 -3 -3 -3 -3 -3 -3 -3 -3 -2 -2 -2 -3 -3 -3 -2 -2 -2 -2 -2 -1 -1 -1 -1 -0 -0 -0
-3 -3 -3 -3 -3 -3 -2 -3 -3 -3 -3 -3 -3 -3 -3 -3 -3 -3 -3 -3 -3 -3 -3 -3 -3 -3 -3 -3 -3 -3 -3 -3 -3 -3 -3 -2 -2 -2 -2 -1 -1 -1 -1
-4 -4 -4 -4 -3 -3 -3 -3 -4 -4 -4 -4 -4 -4 -4 -4 -4 -4 -4 -4 -4 -4 -4 -4 -4 -4 -3 -3 -4 -4 -4 -4 -4 -4 -3 -3 -3 -3 -3 -2 -2 -2 -2
-4 -4 -4 -4 -4 -4 -4 -4 -4 -4 -4 -4 -4 -4 -4 -4 -4 -4 -4 -4 -4 -4 -4 -4 -4 -4 -4 -4 -4 -4 -4 -4 -4 -4 -4 -4 -4 -4 -3 -3 -3 -3 -3
-5 -5 -5 -5 -5 -5 -5 -5 -5 -5 -5 -5 -5 -5 -5 -5 -5 -5 -5 -5 -5 -5 -5 -5 -5 -4 -4 -4 -4 -5 -5 -5 -5 -5 -5 -5 -5 -4 -4 -4 -4 -4 -3
-6 -6 -6 -6 -6 -6 -6 -6 -6 -6 -6 -6 -5 -5 -5 -5 -5 -5 -6 -5 -5 -5 -5 -5 -5 -5 -5 -5 -5 -5 -6 -6 -6 -6 -6 -6 -6 -5 -5 -5 -4 -4 -4
-7 -7 -7 -7 -7 -6 -6 -6 -6 -7 -6 -6 -6 -6 -6 -6 -6 -6 -6 -6 -6 -5 -5 -5 -5 -5 -5 -5 -6 -6 -6 -6 -6 -6 -6 -6 -6 -6 -6 -6 -5 -5 -5
Wind_Speed
4 4 4 4 4 3 3 3 3 4 4 4 4 4 4 3 3 4 4 6 7 7 6 6 6 6 6 6 6 5 5 5 5 5 5 5 5 3 4 4 3 4 4
4 3 4 4 4 3 3 3 3 3 3 3 3 3 3 3 3 3 3 4 6 7 6 6 5 5 5 6 6 6 5 4 4 4 4 4 3 3 3 3 4 2 2
4 3 3 3 3 3 3 3 3 3 3 3 3 3 2 2 2 2 3 3 4 5 6 6 5 4 5 5 5 5 5 5 4 3 3 3 3 2 2 2 3 3 2
4 3 3 3 3 3 2 2 2 2 2 2 1 1 1 2 2 2 2 3 3 3 4 6 6 5 5 5 4 4 4 5 4 4 3 2 2 2 1 1 2 2 2
4 3 3 3 3 3 2 2 2 1 2 1 1 1 1 1 1 1 2 2 2 3 2 3 4 4 4 4 4 4 4 4 4 3 3 3 2 2 2 1 1 1 2
4 3 3 3 3 2 2 2 2 1 1 1 1 1 0 1 1 1 1 1 1 1 2 2 1 2 3 3 2 2 3 3 3 3 3 2 2 2 3 1 2 2 2
4 3 2 3 2 2 2 2 2 2 1 1 1 1 1 1 1 1 1 1 0 0 1 2 1 1 1 1 2 2 2 2 3 3 3 3 2 2 2 2 2 2 3
4 4 3 3 3 2 2 3 3 2 1 1 1 2 2 3 2 2 1 1 1 1 1 2 2 2 2 2 1 2 3 3 3 4 4 3 3 3 3 3 3 3 3
5 5 5 4 4 4 4 4 3 3 3 2 2 2 2 3 1 3 3 3 2 2 2 2 3 3 3 2 2 2 3 4 5 5 5 4 4 4 4 4 4 4 4
6 6 6 5 5 4 4 5 5 4 4 4 3 2 2 2 2 2 3 4 4 3 3 3 3 3 4 3 3 3 4 5 6 6 5 5 5 5 5 5 5 5 5
6 6 7 6 6 5 5 5 5 5 5 5 4 3 3 3 4 4 4 4 4 4 4 4 4 4 4 4 3 3 4 5 5 6 6 6 7 7 7 6 6 6 6
5 7 7 7 7 7 7 6 6 7 6 6 6 5 5 4 5 5 5 5 4 4 4 4 4 4 4 4 4 3 4 4 5 6 6 6 7 7 8 8 8 7 7
6 7 8 8 8 8 8 8 7 7 7 7 7 6 6 6 4 5 5 4 4 3 4 4 5 4 4 4 4 4 4 4 5 6 7 7 7 8 8 8 8 8 7
7 8 9 9 9 9 8 8 7 8 7 8 8 7 6 6 5 5 5 4 4 4 5 5 4 5 5 5 5 5 5 5 6 7 7 8 8 8 8 8 8 8 8
7 8 9 9 10 9 9 9 7 8 8 8 8 8 7 6 6 6 6 6 6 6 6 5 4 5 5 6 6 6 7 7 7 8 8 8 8 8 8 8 8 8 8
8 8 9 9 10 10 10 9 9 9 9 9 7 9 8 7 7 6 7 7 7 7 7 5 5 4 5 6 7 8 8 8 8 9 9 9 9 9 9 9 8 8 8
8 8 9 9 10 10 10 10 10 10 11 10 10 10 10 9 7 7 7 7 8 8 9 6 5 5 7 7 6 8 8 8 8 9 9 9 9 9 9 9 9 9 9
8 9 9 10 10 11 11 11 12 11 12 12 12 11 11 9 10 8 8 9 9 9 8 8 6 6 7 7 7 7 7 7 8 8 10 10 10 9 9 10 10 10 9
9 9 9 10 10 11 11 12 12 12 12 13 12 13 12 11 12 9 10 9 9 8 8 8 7 6 5 6 6 6 7 6 7 8 9 9 10 10 10 10 9 9 8
9 9 10 10 11 11 11 11 12 12 12 12 12 13 13 13 13 12 10 11 10 10 9 8 7 6 5 6 6 6 6 5 6 6 7 7 8 9 10 9 9 9 8
9 9 9 10 10 10 10 11 11 12 12 12 12 13 13 15 15 13 11 11 10 10 9 8 8 7 6 6 6 6 6 5 6 5 5 5 5 6 6 8 8 8 9
8 9 10 10 10 9 11 13 12 11 12 13 12 12 13 15 16 17 17 16 14 13 11 10 9 10 10 8 7 6 6 6 6 4 5 5 4 5 6 7 7 8 9
8 9 9 10 10 11 12 13 14 11 12 12 12 12 10 11 14 13 15 17 16 17 16 12 12 12 11 10 9 9 8 8 7 5 5 6 5 6 6 7 8 9 9
8 8 9 9 10 10 12 13 14 12 11 12 12 12 12 12 12 13 12 12 13 14 14 13 12 11 10 9 10 9 8 7 6 5 6 6 6 6 6 7 8 10 10
8 8 8 9 10 11 12 13 13 10 10 12 12 12 13 13 15 15 12 12 11 11 12 14 14 12 12 13 11 7 7 7 7 6 6 6 5 6 6 6 7 9 10
8 8 9 9 10 11 12 13 14 9 10 10 10 11 14 15 15 15 13 12 12 11 9 9 10 10 11 12 14 12 10 9 6 6 6 5 5 4 5 5 5 6 7
Wind_Direction
93 88 86 80 73 76 79 79 86 91 91 86 85 87 87 86 83 85 82 70 62 61 65 69 71 70 75 82 81 80 80 77 71 64 67 75 75 73 61 63 70 73 69
95 95 89 85 78 72 76 83 85 93 96 90 88 87 84 86 82 85 88 88 72 62 58 61 66 71 76 76 74 71 69 69 67 61 55 60 70 66 57 56 52 52 66
107 104 101 92 85 83 84 87 87 85 91 95 95 85 81 81 88 85 84 80 81 68 56 51 55 57 64 68 69 66 60 55 52 52 46 41 46 51 44 46 46 42 44
118 112 107 103 99 103 96 90 102 106 103 101 105 94 84 79 88 88 90 81 71 67 61 49 47 48 52 55 59 60 54 50 47 43 37 25 21 20 7 9 29 26 23
135 126 115 111 123 112 104 98 113 132 137 116 114 110 109 118 121 108 100 90 74 54 49 47 41 39 43 39 43 42 37 35 36 34 30 26 17 0 326 303 327 326 332
151 145 138 129 125 128 130 126 131 126 149 143 133 116 141 172 172 164 166 117 82 53 24 13 9 22 28 19 17 18 10 7 7 8 2 354 348 352 -0 311 291 294 294
158 155 154 153 153 156 160 154 152 150 145 153 147 135 153 186 200 191 206 224 194 21 1 350 342 324 315 345 353 348 335 328 330 334 336 327 324 319 324 325 304 298 293
174 177 175 179 176 174 172 169 162 178 183 190 186 180 200 205 210 238 239 244 250 254 277 293 295 298 305 304 323 327 317 304 300 306 309 299 290 290 301 310 308 293 285
190 190 195 196 194 188 192 193 192 194 203 212 221 211 205 222 237 220 235 239 245 261 270 286 289 281 279 279 290 307 305 294 290 290 296 285 279 280 284 287 298 299 292
203 201 200 206 208 208 204 206 207 216 212 212 222 245 259 233 215 226 225 232 241 247 259 267 280 276 267 263 271 287 292 291 284 282 288 287 277 276 280 286 291 290 294
213 210 208 207 212 217 215 214 217 223 220 223 224 226 237 240 232 230 244 246 248 247 251 252 255 260 259 261 261 277 290 286 295 290 285 287 281 273 273 276 278 284 291
219 219 216 216 215 219 219 219 221 227 230 230 230 224 224 230 224 228 239 244 253 254 251 251 248 250 254 260 266 278 277 289 294 300 295 287 288 285 278 273 272 275 280
225 222 220 223 222 221 220 220 221 225 228 229 231 233 231 236 236 233 232 245 259 267 256 246 246 247 250 255 258 271 266 278 291 294 302 296 288 286 284 275 270 268 271
231 228 224 226 228 225 223 221 223 226 227 230 234 237 236 234 231 231 232 234 247 254 250 251 242 237 244 250 259 263 263 270 281 285 290 298 293 279 277 273 272 267 265
236 229 227 228 228 227 225 224 226 227 227 228 231 234 238 237 232 234 233 227 231 242 247 242 239 234 243 250 253 259 262 263 271 275 279 281 290 278 268 269 269 269 265
237 233 231 229 227 226 226 225 228 228 228 229 230 231 235 240 234 232 233 232 234 241 248 244 244 243 242 254 258 260 261 262 261 264 267 271 275 279 267 264 265 267 266
238 235 233 230 228 226 224 226 228 227 227 229 228 229 233 236 237 232 232 231 231 234 243 253 254 245 244 249 252 253 257 259 258 255 257 262 266 272 268 261 262 263 265
243 240 238 235 232 231 227 226 228 228 228 230 230 230 232 231 235 234 230 231 231 232 239 248 253 247 249 246 247 250 255 257 259 259 258 257 261 261 263 261 260 259 258
245 243 240 238 236 235 232 229 229 229 230 232 232 231 231 229 231 233 232 233 232 232 235 241 248 249 252 243 246 253 255 257 259 260 257 255 254 254 257 262 259 257 258
246 244 242 241 240 238 236 233 230 230 232 233 232 232 231 230 231 230 232 233 232 229 229 231 238 239 242 239 240 247 255 257 259 256 256 254 254 256 258 257 260 258 259
250 248 246 245 243 239 236 233 232 231 233 234 234 233 233 233 233 230 231 231 231 228 226 228 232 234 235 231 235 241 249 258 262 255 258 254 252 253 252 253 253 253 254
255 251 246 245 244 241 237 236 237 237 235 235 236 237 236 234 234 234 236 234 233 231 226 228 230 231 231 234 236 236 242 254 262 249 254 263 253 254 254 251 256 259 256
260 255 252 249 248 247 241 239 236 239 238 236 235 236 236 234 234 235 238 235 236 237 233 231 234 234 232 230 229 233 236 243 253 253 253 263 256 258 256 255 256 260 258
260 258 257 255 254 253 245 242 240 240 241 239 237 236 236 236 231 231 235 235 235 237 233 232 235 234 233 228 226 233 240 250 263 250 241 258 261 262 262 257 251 255 258
267 263 262 258 257 257 250 245 245 242 241 241 238 236 236 236 233 231 233 234 235 239 236 235 236 234 231 227 223 223 225 229 249 248 239 249 261 268 268 262 253 253 255
267 265 263 260 259 260 255 249 245 241 240 242 240 237 235 236 234 229 230 231 233 236 232 230 231 231 229 225 222 222 222 226 241 248 234 236 250 260 268 262 256 257 261
Height
1537 1538 1538 1539 1540 1541 1542 1543 1544 1544 1545 1546 1547 1548 1548 1549 1550 1550 1551 1551 1552 1552 1553 1553 1554 1554 1554 1555 1555 1555 1555 1555 1555 1556 1556 1556 1556 1556 1556 1556 1556 1557 1556
1535 1536 1537 1538 1538 1539 1540 1541 1542 1543 1544 1544 1545 1546 1547 1548 1548 1549 1550 1550 1550 1551 1551 1552 1552 1553 1553 1553 1553 1554 1554 1554 1554 1554 1555 1555 1555 1555 1555 1555 1555 1555 1555
1533 1534 1535 1536 1537 1538 1539 1540 1541 1542 1542 1543 1544 1545 1545 1546 1547 1547 1548 1548 1549 1549 1550 1550 1551 1551 1552 1552 1552 1552 1552 1552 1552 1552 1553 1553 1554 1554 1554 1554 1554 1554 1554
1531 1532 1533 1534 1535 1536 1537 1538 1539 1540 1541 1541 1542 1543 1543 1544 1545 1545 1546 1547 1547 1548 1548 1548 1549 1549 1550 1550 1550 1550 1550 1550 1550 1550 1551 1551 1552 1552 1552 1552 1552 1553 1553
1528 1529 1530 1531 1532 1533 1534 1535 1537 1538 1539 1539 1539 1540 1541 1542 1543 1543 1544 1545 1545 1545 1546 1546 1547 1547 1547 1548 1548 1548 1548 1548 1548 1549 1549 1549 1550 1550 1550 1550 1550 1551 1551
1525 1527 1528 1529 1530 1531 1532 1533 1534 1535 1536 1537 1537 1538 1539 1539 1540 1541 1541 1542 1543 1543 1543 1544 1544 1545 1545 1545 1545 1546 1546 1546 1546 1546 1547 1547 1547 1547 1548 1548 1548 1548 1549
1522 1523 1525 1526 1527 1528 1529 1530 1531 1532 1533 1534 1535 1535 1536 1537 1537 1538 1539 1539 1540 1540 1541 1541 1542 1542 1542 1542 1542 1543 1543 1543 1544 1544 1544 1544 1544 1545 1545 1545 1545 1546 1546
1519 1520 1521 1522 1524 1525 1526 1527 1528 1529 1530 1531 1532 1533 1535 1536 1535 1535 1536 1536 1537 1537 1538 1538 1539 1539 1539 1539 1539 1539 1540 1540 1541 1541 1541 1541 1542 1542 1542 1542 1542 1543 1543
1515 1517 1518 1519 1520 1521 1522 1523 1524 1526 1526 1528 1529 1531 1532 1532 1532 1532 1532 1532 1533 1533 1534 1535 1535 1535 1535 1535 1536 1536 1536 1537 1537 1537 1538 1538 1538 1539 1539 1539 1539 1539 1540
1512 1513 1514 1515 1516 1517 1518 1519 1520 1522 1523 1524 1526 1527 1528 1528 1529 1528 1529 1529 1529 1529 1530 1530 1531 1531 1531 1531 1532 1532 1532 1533 1533 1533 1534 1534 1535 1535 1535 1535 1535 1536 1536
1507 1508 1510 1511 1512 1513 1514 1515 1516 1518 1519 1520 1521 1522 1523 1524 1525 1525 1525 1525 1525 1525 1526 1526 1526 1527 1527 1527 1527 1527 1528 1528 1529 1529 1529 1530 1530 1531 1531 1531 1531 1532 1532
1502 1503 1505 1506 1507 1508 1509 1511 1512 1513 1514 1515 1517 1518 1518 1519 1520 1521 1521 1521 1521 1521 1521 1521 1522 1522 1522 1523 1523 1523 1523 1524 1524 1524 1524 1525 1525 1526 1526 1526 1527 1527 1528
1497 1498 1499 1501 1502 1503 1504 1505 1506 1508 1509 1510 1511 1512 1513 1515 1516 1516 1517 1517 1517 1516 1516 1516 1517 1517 1518 1518 1518 1518 1519 1519 1519 1519 1519 1520 1520 1520 1521 1521 1522 1522 1523
1492 1494 1494 1495 1496 1497 1499 1500 1501 1502 1503 1504 1505 1507 1508 1509 1510 1511 1512 1513 1512 1512 1512 1512 1512 1513 1513 1513 1514 1514 1514 1514 1514 1514 1514 1514 1514 1515 1515 1516 1516 1517 1517
1487 1488 1489 1489 1490 1491 1493 1494 1495 1496 1497 1498 1499 1501 1502 1503 1504 1505 1506 1508 1509 1508 1507 1508 1508 1508 1508 1509 1509 1509 1509 1509 1509 1509 1509 1509 1509 1509 1510 1510 1511 1511 1512
1481 1482 1482 1483 1484 1485 1487 1488 1488 1490 1491 1491 1493 1494 1496 1497 1498 1499 1500 1501 1502 1503 1502 1502 1502 1503 1503 1504 1503 1504 1503 1503 1503 1503 1503 1504 1504 1503 1504 1505 1505 1506 1506
1474 1475 1476 1477 1478 1479 1480 1481 1482 1483 1484 1485 1486 1488 1489 1490 1491 1492 1493 1494 1495 1497 1496 1496 1497 1497 1498 1498 1498 1498 1498 1497 1497 1498 1498 1498 1498 1498 1498 1499 1500 1500 1501
1468 1469 1469 1470 1471 1472 1473 1474 1475 1476 1477 1478 1479 1480 1481 1483 1484 1485 1486 1487 1489 1490 1490 1490 1490 1491 1492 1492 1492 1492 1492 1492 1492 1491 1491 1492 1492 1492 1492 1493 1494 1494 1495
1461 1462 1463 1463 1464 1465 1466 1467 1468 1469 1470 1471 1472 1473 1474 1476 1477 1478 1480 1481 1482 1483 1484 1485 1484 1485 1485 1486 1487 1487 1486 1486 1485 1485 1485 1485 1485 1486 1487 1487 1488 1489 1489
1455 1455 1456 1456 1457 1458 1459 1460 1461 1461 1462 1463 1465 1466 1467 1468 1470 1471 1473 1474 1475 1476 1477 1478 1478 1479 1479 1480 1481 1481 1480 1480 1480 1480 1479 1479 1479 1480 1481 1481 1482 1482 1483
1448 1448 1449 1449 1450 1450 1451 1452 1453 1454 1455 1456 1457 1458 1459 1461 1462 1464 1466 1467 1469 1469 1470 1471 1471 1472 1473 1474 1474 1475 1475 1475 1474 1474 1473 1473 1473 1474 1474 1475 1476 1477 1477
1441 1442 1441 1442 1442 1442 1443 1444 1445 1446 1447 1448 1449 1450 1452 1453 1455 1457 1458 1460 1461 1462 1462 1464 1464 1465 1466 1468 1469 1470 1470 1469 1469 1469 1468 1468 1468 1468 1469 1470 1470 1471 1471
1435 1435 1435 1434 1434 1435 1436 1437 1438 1439 1440 1440 1441 1443 1444 1445 1447 1449 1450 1451 1453 1454 1456 1457 1457 1458 1460 1462 1463 1464 1464 1464 1463 1464 1464 1462 1464 1463 1464 1464 1465 1465 1465
1429 1428 1428 1427 1427 1428 1429 1430 1431 1432 1432 1433 1434 1435 1436 1437 1439 1441 1442 1443 1444 1446 1448 1450 1451 1452 1454 1456 1457 1458 1458 1459 1458 1458 1459 1458 1458 1459 1459 1459 1459 1459 1459
1422 1421 1421 1421 1420 1420 1422 1423 1424 1424 1424 1425 1426 1427 1428 1430 1432 1434 1435 1436 1437 1438 1440 1442 1444 1446 1447 1449 1450 1452 1452 1453 1452 1452 1454 1454 1453 1453 1453 1453 1453 1453 1453
1415 1415 1414 1414 1414 1414 1414 1415 1416 1417 1417 1418 1419 1420 1421 1422 1425 1426 1428 1429 1430 1431 1434 1435 1437 1438 1440 1442 1443 1445 1445 1446 1446 1447 1447 1449 1448 1449 1448 1447 1447 1447 1447